Time,TemperatureF,DewpointF,PressureIn,WindDirection,WindDirectionDegrees,WindSpeedMPH,WindSpeedGustMPH,Humidity,HourlyPrecipIn,Conditions,Clouds,dailyrainin,SoftwareType,DateUTC
2013-02-26 00:00:00,29.5,28.2,30.27,South,182,0.0,0.0,95,0.00,,,0.04,VWS V14.01,2013-02-26 05:00:00,
2013-02-26 00:05:00,29.5,28.2,30.27,South,182,0.0,0.0,95,0.00,,,0.00,VWS V14.01,2013-02-26 05:05:00,
2013-02-26 00:10:00,29.5,28.2,30.27,South,182,0.0,0.0,95,0.00,,,0.00,VWS V14.01,2013-02-26 05:10:00,
2013-02-26 00:15:00,29.5,28.2,30.27,South,182,0.0,0.0,95,0.00,,,0.00,VWS V14.01,2013-02-26 05:15:00,
2013-02-26 00:20:00,29.5,28.2,30.27,South,182,0.0,0.0,95,0.00,,,0.00,VWS V14.01,2013-02-26 05:20:00,
2013-02-26 00:25:00,29.5,28.2,30.27,South,182,0.0,0.0,95,0.00,,,0.00,VWS V14.01,2013-02-26 05:25:00,
2013-02-26 00:30:00,29.5,28.2,30.27,South,182,0.0,1.0,95,0.00,,,0.00,VWS V14.01,2013-02-26 05:30:00,
2013-02-26 00:35:00,29.5,28.2,30.27,South,182,0.0,0.0,95,0.00,,,0.00,VWS V14.01,2013-02-26 05:35:00,
2013-02-26 00:40:00,29.5,28.2,30.28,South,182,0.0,0.0,95,0.00,,,0.00,VWS V14.01,2013-02-26 05:40:00,
2013-02-26 00:45:00,29.5,28.2,30.28,South,182,0.0,0.0,95,0.00,,,0.00,VWS V14.01,2013-02-26 05:45:00,
2013-02-26 00:50:00,29.5,28.2,30.28,South,182,0.0,0.0,95,0.00,,,0.00,VWS V14.01,2013-02-26 05:50:00,
2013-02-26 00:55:00,29.5,28.2,30.28,South,182,0.0,0.0,95,0.00,,,0.00,VWS V14.01,2013-02-26 05:55:00,
2013-02-26 01:00:00,29.5,28.2,30.28,South,182,0.0,0.0,95,0.00,,,0.00,VWS V14.01,2013-02-26 06:00:00,
2013-02-26 01:05:00,29.5,28.2,30.28,South,182,0.0,0.0,95,0.00,,,0.00,VWS V14.01,2013-02-26 06:05:00,
2013-02-26 01:10:00,29.5,28.2,30.28,South,182,0.0,0.0,95,0.00,,,0.00,VWS V14.01,2013-02-26 06:10:00,
2013-02-26 01:15:00,29.4,28.1,30.28,South,182,0.0,0.0,95,0.00,,,0.00,VWS V14.01,2013-02-26 06:15:00,
2013-02-26 01:20:00,29.4,28.1,30.28,South,182,0.0,0.0,95,0.00,,,0.00,VWS V14.01,2013-02-26 06:20:00,
2013-02-26 01:25:00,29.4,28.1,30.28,South,182,0.0,0.0,95,0.00,,,0.00,VWS V14.01,2013-02-26 06:25:00,
2013-02-26 01:30:00,29.4,28.1,30.28,South,182,0.0,0.0,95,0.00,,,0.00,VWS V14.01,2013-02-26 06:30:00,
2013-02-26 01:35:00,29.4,28.1,30.28,South,182,0.0,0.0,95,0.00,,,0.00,VWS V14.01,2013-02-26 06:35:00,
2013-02-26 01:40:00,29.3,28.0,30.27,South,182,0.0,0.0,95,0.00,,,0.00,VWS V14.01,2013-02-26 06:40:00,
2013-02-26 01:45:00,29.3,28.0,30.28,South,182,0.0,0.0,95,0.00,,,0.00,VWS V14.01,2013-02-26 06:45:00,
2013-02-26 01:50:00,29.3,28.0,30.28,South,182,0.0,0.0,95,0.00,,,0.00,VWS V14.01,2013-02-26 06:50:00,
2013-02-26 01:55:00,29.2,28.0,30.28,South,182,0.0,0.0,95,0.00,,,0.00,VWS V14.01,2013-02-26 06:55:00,
2013-02-26 02:00:00,29.2,28.0,30.28,South,182,0.0,0.0,95,0.00,,,0.00,VWS V14.01,2013-02-26 07:00:00,
2013-02-26 02:05:00,29.2,28.0,30.28,South,182,0.0,0.0,95,0.00,,,0.00,VWS V14.01,2013-02-26 07:05:00,
2013-02-26 02:10:00,29.2,28.0,30.29,South,182,0.0,0.0,95,0.00,,,0.00,VWS V14.01,2013-02-26 07:10:00,
2013-02-26 02:15:00,29.2,28.0,30.29,South,182,0.0,0.0,95,0.00,,,0.00,VWS V14.01,2013-02-26 07:15:00,
2013-02-26 02:20:00,29.2,28.0,30.28,South,182,0.0,0.0,95,0.00,,,0.00,VWS V14.01,2013-02-26 07:20:00,
2013-02-26 02:25:00,29.2,28.0,30.28,South,182,0.0,0.0,95,0.00,,,0.00,VWS V14.01,2013-02-26 07:25:00,
2013-02-26 02:30:00,29.2,28.0,30.29,South,182,0.0,0.0,95,0.00,,,0.00,VWS V14.01,2013-02-26 07:30:00,
2013-02-26 02:35:00,29.1,27.9,30.28,South,182,0.0,0.0,95,0.00,,,0.00,VWS V14.01,2013-02-26 07:35:00,
2013-02-26 02:40:00,29.1,27.9,30.28,South,182,0.0,0.0,95,0.00,,,0.00,VWS V14.01,2013-02-26 07:40:00,
2013-02-26 02:45:00,29.1,27.9,30.29,South,182,0.0,0.0,95,0.00,,,0.00,VWS V14.01,2013-02-26 07:45:00,
2013-02-26 02:50:00,29.0,27.8,30.30,South,182,0.0,0.0,95,0.00,,,0.00,VWS V14.01,2013-02-26 07:50:00,
2013-02-26 02:55:00,29.0,27.8,30.30,South,182,0.0,0.0,95,0.00,,,0.00,VWS V14.01,2013-02-26 07:55:00,
2013-02-26 03:00:00,29.0,27.8,30.30,South,182,0.0,0.0,95,0.00,,,0.00,VWS V14.01,2013-02-26 08:00:00,
2013-02-26 03:05:00,29.0,27.8,30.30,South,182,0.0,0.0,95,0.00,,,0.00,VWS V14.01,2013-02-26 08:05:00,
2013-02-26 03:10:00,29.0,27.8,30.31,South,182,0.0,0.0,95,0.00,,,0.00,VWS V14.01,2013-02-26 08:10:00,
2013-02-26 03:15:00,29.0,27.8,30.30,South,182,0.0,0.0,95,0.00,,,0.00,VWS V14.01,2013-02-26 08:15:00,
2013-02-26 03:20:00,29.0,27.8,30.30,South,182,0.0,0.0,95,0.00,,,0.00,VWS V14.01,2013-02-26 08:20:00,
2013-02-26 03:25:00,29.0,27.8,30.30,South,182,0.0,0.0,95,0.00,,,0.00,VWS V14.01,2013-02-26 08:25:00,
2013-02-26 03:30:00,29.0,27.8,30.31,South,182,0.0,0.0,95,0.00,,,0.00,VWS V14.01,2013-02-26 08:30:00,
2013-02-26 03:35:00,29.0,27.8,30.30,South,182,0.0,0.0,95,0.00,,,0.00,VWS V14.01,2013-02-26 08:35:00,
2013-02-26 03:40:00,29.0,27.8,30.30,South,182,0.0,0.0,95,0.00,,,0.00,VWS V14.01,2013-02-26 08:40:00,
2013-02-26 03:45:00,29.1,28.1,30.30,South,182,0.0,0.0,96,0.00,,,0.00,VWS V14.01,2013-02-26 08:45:00,
2013-02-26 03:50:00,29.1,28.1,30.29,South,182,0.0,0.0,96,0.00,,,0.00,VWS V14.01,2013-02-26 08:50:00,
2013-02-26 03:55:00,29.1,27.9,30.29,South,182,0.0,0.0,95,0.00,,,0.00,VWS V14.01,2013-02-26 08:55:00,
2013-02-26 04:00:00,29.0,27.8,30.29,South,182,0.0,0.0,95,0.00,,,0.00,VWS V14.01,2013-02-26 09:00:00,
2013-02-26 04:05:00,29.0,27.8,30.29,South,182,0.0,0.0,95,0.00,,,0.00,VWS V14.01,2013-02-26 09:05:00,
2013-02-26 04:10:00,28.9,27.6,30.30,South,182,0.0,0.0,95,0.00,,,0.00,VWS V14.01,2013-02-26 09:10:00,
2013-02-26 04:15:00,28.8,27.5,30.31,South,182,0.0,0.0,95,0.00,,,0.00,VWS V14.01,2013-02-26 09:15:00,
2013-02-26 04:20:00,28.8,27.5,30.31,South,182,0.0,0.0,95,0.00,,,0.00,VWS V14.01,2013-02-26 09:20:00,
2013-02-26 04:25:00,28.8,27.5,30.31,South,182,0.0,0.0,95,0.00,,,0.00,VWS V14.01,2013-02-26 09:25:00,
2013-02-26 04:30:00,28.8,27.5,30.31,South,182,0.0,0.0,95,0.00,,,0.00,VWS V14.01,2013-02-26 09:30:00,
2013-02-26 04:35:00,28.8,27.5,30.31,South,182,0.0,0.0,95,0.00,,,0.00,VWS V14.01,2013-02-26 09:35:00,
2013-02-26 04:40:00,28.9,27.6,30.32,South,182,0.0,0.0,95,0.00,,,0.00,VWS V14.01,2013-02-26 09:40:00,
2013-02-26 04:45:00,28.9,27.6,30.32,South,182,0.0,0.0,95,0.00,,,0.00,VWS V14.01,2013-02-26 09:45:00,
2013-02-26 04:50:00,29.0,27.8,30.32,South,182,0.0,0.0,95,0.00,,,0.00,VWS V14.01,2013-02-26 09:50:00,
2013-02-26 04:55:00,29.2,28.2,30.32,South,182,0.0,0.0,96,0.00,,,0.00,VWS V14.01,2013-02-26 09:55:00,
2013-02-26 05:00:00,29.2,28.2,30.33,South,182,0.0,0.0,96,0.00,,,0.00,VWS V14.01,2013-02-26 10:00:00,
2013-02-26 05:05:00,29.2,28.0,30.33,South,182,0.0,0.0,95,0.00,,,0.00,VWS V14.01,2013-02-26 10:05:00,
2013-02-26 05:10:00,29.2,28.0,30.33,South,182,0.0,0.0,95,0.00,,,0.00,VWS V14.01,2013-02-26 10:10:00,
2013-02-26 05:15:00,29.2,28.0,30.32,South,182,0.0,0.0,95,0.00,,,0.00,VWS V14.01,2013-02-26 10:15:00,
2013-02-26 05:20:00,29.2,28.0,30.33,South,182,0.0,0.0,95,0.00,,,0.00,VWS V14.01,2013-02-26 10:20:00,
2013-02-26 05:25:00,29.2,28.0,30.33,South,182,0.0,0.0,95,0.00,,,0.00,VWS V14.01,2013-02-26 10:25:00,
2013-02-26 05:30:00,29.2,28.0,30.32,South,182,0.0,0.0,95,0.00,,,0.00,VWS V14.01,2013-02-26 10:30:00,
2013-02-26 05:35:00,29.2,28.0,30.32,South,182,0.0,0.0,95,0.00,,,0.00,VWS V14.01,2013-02-26 10:35:00,
2013-02-26 05:40:00,29.2,28.0,30.33,South,182,0.0,0.0,95,0.00,,,0.00,VWS V14.01,2013-02-26 10:40:00,
2013-02-26 05:45:00,29.0,27.8,30.32,South,182,0.0,0.0,95,0.00,,,0.00,VWS V14.01,2013-02-26 10:45:00,
2013-02-26 05:50:00,28.9,27.6,30.32,South,182,0.0,0.0,95,0.00,,,0.00,VWS V14.01,2013-02-26 10:50:00,
2013-02-26 05:55:00,28.7,27.5,30.32,South,182,0.0,0.0,95,0.00,,,0.00,VWS V14.01,2013-02-26 10:55:00,
2013-02-26 06:00:00,28.7,27.5,30.32,South,182,0.0,1.0,95,0.00,,,0.00,VWS V14.01,2013-02-26 11:00:00,
2013-02-26 06:05:00,28.6,27.4,30.32,South,182,0.0,0.0,95,0.00,,,0.00,VWS V14.01,2013-02-26 11:05:00,
2013-02-26 06:10:00,28.6,27.4,30.33,South,182,0.0,0.0,95,0.00,,,0.00,VWS V14.01,2013-02-26 11:10:00,
2013-02-26 06:15:00,28.6,27.4,30.33,South,182,0.0,0.0,95,0.00,,,0.00,VWS V14.01,2013-02-26 11:15:00,
2013-02-26 06:20:00,28.5,27.2,30.33,South,182,0.0,0.0,95,0.00,,,0.00,VWS V14.01,2013-02-26 11:20:00,
2013-02-26 06:25:00,28.5,27.5,30.34,South,182,0.0,0.0,96,0.00,,,0.00,VWS V14.01,2013-02-26 11:25:00,
2013-02-26 06:30:00,28.5,27.5,30.34,South,182,0.0,0.0,96,0.00,,,0.00,VWS V14.01,2013-02-26 11:30:00,
2013-02-26 06:35:00,28.5,27.5,30.33,South,182,0.0,0.0,96,0.00,,,0.00,VWS V14.01,2013-02-26 11:35:00,
2013-02-26 06:40:00,28.6,27.6,30.33,South,182,0.0,0.0,96,0.00,,,0.00,VWS V14.01,2013-02-26 11:40:00,
2013-02-26 06:45:00,28.7,27.7,30.33,South,182,0.0,0.0,96,0.00,,,0.00,VWS V14.01,2013-02-26 11:45:00,
2013-02-26 06:50:00,28.8,27.8,30.34,South,182,0.0,0.0,96,0.00,,,0.00,VWS V14.01,2013-02-26 11:50:00,
2013-02-26 06:55:00,28.7,27.7,30.34,South,182,0.0,0.0,96,0.00,,,0.00,VWS V14.01,2013-02-26 11:55:00,
2013-02-26 07:00:00,28.7,27.7,30.34,South,182,0.0,0.0,96,0.00,,,0.00,VWS V14.01,2013-02-26 12:00:00,
2013-02-26 07:05:00,28.7,27.7,30.34,South,182,0.0,0.0,96,0.00,,,0.00,VWS V14.01,2013-02-26 12:05:00,
2013-02-26 07:10:00,28.7,27.7,30.34,South,182,0.0,0.0,96,0.00,,,0.00,VWS V14.01,2013-02-26 12:10:00,
2013-02-26 07:15:00,28.8,27.8,30.34,South,182,0.0,0.0,96,0.00,,,0.00,VWS V14.01,2013-02-26 12:15:00,
2013-02-26 07:20:00,28.9,27.9,30.35,South,182,0.0,0.0,96,0.00,,,0.00,VWS V14.01,2013-02-26 12:20:00,
2013-02-26 07:25:00,28.9,27.9,30.34,South,182,0.0,0.0,96,0.00,,,0.00,VWS V14.01,2013-02-26 12:25:00,
2013-02-26 07:30:00,29.0,28.0,30.34,South,182,0.0,0.0,96,0.00,,,0.00,VWS V14.01,2013-02-26 12:30:00,
2013-02-26 07:35:00,29.1,28.1,30.35,South,182,0.0,0.0,96,0.00,,,0.00,VWS V14.01,2013-02-26 12:35:00,
2013-02-26 07:40:00,29.1,28.1,30.35,South,182,0.0,0.0,96,0.00,,,0.00,VWS V14.01,2013-02-26 12:40:00,
2013-02-26 07:45:00,29.3,28.3,30.35,South,182,0.0,0.0,96,0.00,,,0.00,VWS V14.01,2013-02-26 12:45:00,
2013-02-26 07:50:00,29.4,28.4,30.35,South,182,0.0,0.0,96,0.00,,,0.00,VWS V14.01,2013-02-26 12:50:00,
2013-02-26 07:55:00,29.5,28.5,30.34,South,182,0.0,0.0,96,0.00,,,0.00,VWS V14.01,2013-02-26 12:55:00,
2013-02-26 08:00:00,29.5,28.5,30.35,South,182,0.0,0.0,96,0.00,,,0.00,VWS V14.01,2013-02-26 13:00:00,
2013-02-26 08:05:00,29.6,28.6,30.34,South,182,0.0,0.0,96,0.00,,,0.00,VWS V14.01,2013-02-26 13:05:00,
2013-02-26 08:10:00,29.6,28.4,30.35,South,182,0.0,0.0,95,0.00,,,0.00,VWS V14.01,2013-02-26 13:10:00,
2013-02-26 08:15:00,29.6,28.6,30.35,South,182,0.0,0.0,96,0.00,,,0.00,VWS V14.01,2013-02-26 13:15:00,
2013-02-26 08:20:00,29.7,28.7,30.35,South,182,0.0,0.0,96,0.00,,,0.00,VWS V14.01,2013-02-26 13:20:00,
2013-02-26 08:25:00,29.8,28.8,30.35,South,182,0.0,0.0,96,0.00,,,0.00,VWS V14.01,2013-02-26 13:25:00,
2013-02-26 08:30:00,30.0,29.0,30.34,South,182,0.0,0.0,96,0.00,,,0.00,VWS V14.01,2013-02-26 13:30:00,
2013-02-26 08:35:00,30.2,29.2,30.35,South,182,0.0,0.0,96,0.00,,,0.00,VWS V14.01,2013-02-26 13:35:00,
2013-02-26 08:40:00,30.3,29.3,30.35,South,182,0.0,1.0,96,0.00,,,0.00,VWS V14.01,2013-02-26 13:40:00,
2013-02-26 08:45:00,30.5,29.2,30.35,South,182,0.0,0.0,95,0.00,,,0.00,VWS V14.01,2013-02-26 13:45:00,
2013-02-26 08:50:00,30.5,29.2,30.35,South,182,0.0,0.0,95,0.00,,,0.00,VWS V14.01,2013-02-26 13:50:00,
2013-02-26 08:55:00,30.6,29.3,30.36,South,182,0.0,1.0,95,0.00,,,0.00,VWS V14.01,2013-02-26 13:55:00,
2013-02-26 09:00:00,30.6,29.3,30.36,South,190,0.0,1.0,95,0.00,,,0.00,VWS V14.01,2013-02-26 14:00:00,
2013-02-26 09:05:00,30.7,29.2,30.36,South,190,0.0,1.0,94,0.00,,,0.00,VWS V14.01,2013-02-26 14:05:00,
2013-02-26 09:10:00,31.0,29.7,30.35,South,190,0.0,1.0,95,0.00,,,0.00,VWS V14.01,2013-02-26 14:10:00,
2013-02-26 09:15:00,31.1,29.6,30.36,South,190,0.0,0.0,94,0.00,,,0.00,VWS V14.01,2013-02-26 14:15:00,
2013-02-26 09:20:00,31.2,29.7,30.36,South,190,0.0,0.0,94,0.00,,,0.00,VWS V14.01,2013-02-26 14:20:00,
2013-02-26 09:25:00,31.6,30.1,30.36,South,190,0.0,0.0,94,0.00,,,0.00,VWS V14.01,2013-02-26 14:25:00,
2013-02-26 09:30:00,31.9,30.1,30.35,South,190,0.0,1.0,93,0.00,,,0.00,VWS V14.01,2013-02-26 14:30:00,
2013-02-26 09:35:00,31.9,29.8,30.35,South,190,0.0,0.0,92,0.00,,,0.00,VWS V14.01,2013-02-26 14:35:00,
2013-02-26 09:40:00,32.0,29.9,30.35,South,190,0.0,0.0,92,0.00,,,0.00,VWS V14.01,2013-02-26 14:40:00,
2013-02-26 09:45:00,32.0,29.9,30.35,WSW,238,0.0,0.0,92,0.00,,,0.00,VWS V14.01,2013-02-26 14:45:00,
2013-02-26 09:50:00,31.9,29.8,30.35,WSW,238,0.0,1.0,92,0.00,,,0.00,VWS V14.01,2013-02-26 14:50:00,
2013-02-26 09:55:00,32.0,29.9,30.35,WSW,238,0.0,0.0,92,0.00,,,0.00,VWS V14.01,2013-02-26 14:55:00,
2013-02-26 10:00:00,32.2,30.1,30.35,WSW,238,0.0,1.0,92,0.00,,,0.00,VWS V14.01,2013-02-26 15:00:00,
2013-02-26 10:05:00,32.4,30.1,30.35,WSW,238,0.0,0.0,91,0.00,,,0.00,VWS V14.01,2013-02-26 15:05:00,
2013-02-26 10:10:00,32.9,30.6,30.34,WSW,238,0.0,0.0,91,0.01,,,0.01,VWS V14.01,2013-02-26 15:10:00,
2013-02-26 10:15:00,33.4,31.1,30.34,WSW,238,0.0,0.0,91,0.01,,,0.01,VWS V14.01,2013-02-26 15:15:00,
2013-02-26 10:20:00,33.7,30.8,30.34,WSW,238,0.0,1.0,89,0.01,,,0.01,VWS V14.01,2013-02-26 15:20:00,
2013-02-26 10:25:00,33.8,30.6,30.33,WSW,238,0.0,0.0,88,0.01,,,0.01,VWS V14.01,2013-02-26 15:25:00,
2013-02-26 10:30:00,33.7,30.5,30.33,East,100,1.0,2.0,88,0.01,,,0.01,VWS V14.01,2013-02-26 15:30:00,
2013-02-26 10:35:00,33.9,30.7,30.33,East,100,0.0,0.0,88,0.01,,,0.01,VWS V14.01,2013-02-26 15:35:00,
2013-02-26 10:40:00,34.3,31.1,30.33,East,100,0.0,0.0,88,0.02,,,0.02,VWS V14.01,2013-02-26 15:40:00,
2013-02-26 10:45:00,34.6,30.3,30.33,ESE,114,0.0,1.0,84,0.02,,,0.02,VWS V14.01,2013-02-26 15:45:00,
2013-02-26 10:50:00,35.2,30.3,30.32,NNE,27,0.0,1.0,82,0.02,,,0.02,VWS V14.01,2013-02-26 15:50:00,
2013-02-26 10:55:00,36.1,30.8,30.33,NE,34,0.0,0.0,81,0.02,,,0.02,VWS V14.01,2013-02-26 15:55:00,
2013-02-26 11:00:00,36.2,29.7,30.33,South,182,0.0,5.0,77,0.02,,,0.02,VWS V14.01,2013-02-26 16:00:00,
2013-02-26 11:05:00,36.1,29.6,30.33,ENE,63,0.0,1.0,77,0.02,,,0.02,VWS V14.01,2013-02-26 16:05:00,
2013-02-26 11:10:00,36.7,30.5,30.33,SE,145,0.0,5.0,78,0.03,,,0.03,VWS V14.01,2013-02-26 16:10:00,
2013-02-26 11:15:00,37.3,30.4,30.33,East,84,1.0,1.0,76,0.02,,,0.03,VWS V14.01,2013-02-26 16:15:00,
2013-02-26 11:20:00,38.0,31.1,30.33,East,84,0.0,1.0,76,0.02,,,0.03,VWS V14.01,2013-02-26 16:20:00,
2013-02-26 11:25:00,38.6,31.4,30.33,NNE,18,0.0,1.0,75,0.03,,,0.04,VWS V14.01,2013-02-26 16:25:00,
2013-02-26 11:30:00,38.6,30.7,30.33,NNW,348,2.0,4.0,73,0.03,,,0.04,VWS V14.01,2013-02-26 16:30:00,
2013-02-26 11:35:00,38.1,29.9,30.33,WSW,243,0.0,0.0,72,0.04,,,0.05,VWS V14.01,2013-02-26 16:35:00,
2013-02-26 11:40:00,38.3,30.4,30.33,SW,221,0.0,3.0,73,0.04,,,0.05,VWS V14.01,2013-02-26 16:40:00,
2013-02-26 11:45:00,38.1,29.9,30.33,SW,236,2.0,4.0,72,0.04,,,0.06,VWS V14.01,2013-02-26 16:45:00,
2013-02-26 11:50:00,37.5,30.3,30.32,SW,223,1.0,5.0,75,0.04,,,0.06,VWS V14.01,2013-02-26 16:50:00,
2013-02-26 11:55:00,37.6,30.4,30.32,SSW,210,2.0,2.0,75,0.04,,,0.06,VWS V14.01,2013-02-26 16:55:00,
2013-02-26 12:00:00,38.1,29.9,30.32,South,181,1.0,5.0,72,0.04,,,0.07,VWS V14.01,2013-02-26 17:00:00,
2013-02-26 12:05:00,37.9,30.4,30.32,SW,235,0.0,0.0,74,0.05,,,0.07,VWS V14.01,2013-02-26 17:05:00,
2013-02-26 12:10:00,38.0,30.1,30.32,SE,132,0.0,3.0,73,0.05,,,0.07,VWS V14.01,2013-02-26 17:10:00,
2013-02-26 12:15:00,37.8,29.6,30.31,WSW,250,0.0,1.0,72,0.05,,,0.08,VWS V14.01,2013-02-26 17:15:00,
2013-02-26 12:20:00,37.6,30.1,30.31,SE,129,0.0,5.0,74,0.05,,,0.08,VWS V14.01,2013-02-26 17:20:00,
2013-02-26 12:25:00,37.6,29.7,30.31,NW,304,0.0,0.0,73,0.04,,,0.08,VWS V14.01,2013-02-26 17:25:00,
2013-02-26 12:30:00,37.9,30.4,30.31,WNW,284,0.0,1.0,74,0.05,,,0.09,VWS V14.01,2013-02-26 17:30:00,
2013-02-26 12:35:00,38.4,29.8,30.31,South,185,0.0,4.0,71,0.04,,,0.09,VWS V14.01,2013-02-26 17:35:00,
2013-02-26 12:40:00,38.8,29.5,30.31,East,101,0.0,5.0,69,0.04,,,0.09,VWS V14.01,2013-02-26 17:40:00,
2013-02-26 12:45:00,39.7,29.7,30.31,ESE,104,2.0,9.0,67,0.04,,,0.10,VWS V14.01,2013-02-26 17:45:00,
2013-02-26 12:50:00,40.6,29.8,30.31,WSW,242,0.0,9.0,65,0.04,,,0.10,VWS V14.01,2013-02-26 17:50:00,
2013-02-26 12:55:00,40.4,29.2,30.31,SW,218,3.0,5.0,64,0.05,,,0.11,VWS V14.01,2013-02-26 17:55:00,
2013-02-26 13:00:00,38.9,28.5,30.31,WSW,251,4.0,5.0,66,0.05,,,0.11,VWS V14.01,2013-02-26 18:00:00,
2013-02-26 13:05:00,38.2,28.9,30.31,SSW,205,0.0,2.0,69,0.05,,,0.12,VWS V14.01,2013-02-26 18:05:00,
2013-02-26 13:10:00,37.7,28.5,30.31,SW,215,0.0,5.0,69,0.05,,,0.12,VWS V14.01,2013-02-26 18:10:00,
2013-02-26 13:15:00,37.6,29.1,30.31,SW,229,0.0,2.0,71,0.04,,,0.12,VWS V14.01,2013-02-26 18:15:00,
2013-02-26 13:20:00,37.6,29.7,30.31,SW,229,0.0,2.0,73,0.04,,,0.12,VWS V14.01,2013-02-26 18:20:00,
2013-02-26 13:25:00,37.6,28.4,30.31,SE,132,4.0,4.0,69,0.04,,,0.12,VWS V14.01,2013-02-26 18:25:00,
2013-02-26 13:30:00,37.6,29.4,30.31,ESE,122,0.0,5.0,72,0.05,,,0.13,VWS V14.01,2013-02-26 18:30:00,
2013-02-26 13:35:00,37.7,29.2,30.31,ESE,116,0.0,0.0,71,0.04,,,0.13,VWS V14.01,2013-02-26 18:35:00,
2013-02-26 13:40:00,38.0,30.5,30.31,NW,323,0.0,5.0,74,0.04,,,0.13,VWS V14.01,2013-02-26 18:40:00,
2013-02-26 13:45:00,37.9,29.0,30.31,SE,132,0.0,4.0,70,0.03,,,0.13,VWS V14.01,2013-02-26 18:45:00,
2013-02-26 13:50:00,37.6,30.1,30.31,SSE,163,2.0,8.0,74,0.03,,,0.13,VWS V14.01,2013-02-26 18:50:00,
2013-02-26 13:55:00,37.2,29.0,30.31,SW,226,0.0,0.0,72,0.03,,,0.14,VWS V14.01,2013-02-26 18:55:00,
2013-02-26 14:00:00,37.3,29.1,30.31,SSW,194,1.0,4.0,72,0.03,,,0.14,VWS V14.01,2013-02-26 19:00:00,
2013-02-26 14:05:00,37.3,29.1,30.31,WSW,237,0.0,0.0,72,0.02,,,0.14,VWS V14.01,2013-02-26 19:05:00,
2013-02-26 14:10:00,37.7,29.5,30.31,WSW,258,1.0,3.0,72,0.02,,,0.14,VWS V14.01,2013-02-26 19:10:00,
2013-02-26 14:15:00,37.7,29.2,30.30,SSE,157,5.0,6.0,71,0.02,,,0.14,VWS V14.01,2013-02-26 19:15:00,
2013-02-26 14:20:00,38.3,29.4,30.30,SSW,193,0.0,6.0,70,0.02,,,0.14,VWS V14.01,2013-02-26 19:20:00,
2013-02-26 14:25:00,38.5,29.9,30.29,East,94,2.0,2.0,71,0.02,,,0.14,VWS V14.01,2013-02-26 19:25:00,
2013-02-26 14:30:00,38.0,29.5,30.29,WNW,288,4.0,11.0,71,0.03,,,0.15,VWS V14.01,2013-02-26 19:30:00,
2013-02-26 14:35:00,37.4,28.9,30.29,South,182,1.0,8.0,71,0.02,,,0.15,VWS V14.01,2013-02-26 19:35:00,
2013-02-26 14:40:00,37.5,27.5,30.28,SW,219,2.0,10.0,67,0.02,,,0.15,VWS V14.01,2013-02-26 19:40:00,
2013-02-26 14:45:00,37.7,27.4,30.28,NNW,336,0.0,0.0,66,0.02,,,0.15,VWS V14.01,2013-02-26 19:45:00,
2013-02-26 14:50:00,38.0,28.0,30.27,South,182,0.0,8.0,67,0.02,,,0.15,VWS V14.01,2013-02-26 19:50:00,
2013-02-26 14:55:00,38.5,28.5,30.27,West,263,1.0,3.0,67,0.01,,,0.15,VWS V14.01,2013-02-26 19:55:00,
2013-02-26 15:00:00,38.8,27.7,30.27,SE,124,0.0,5.0,64,0.02,,,0.16,VWS V14.01,2013-02-26 20:00:00,
2013-02-26 15:05:00,38.7,28.0,30.27,WSW,248,0.0,3.0,65,0.02,,,0.16,VWS V14.01,2013-02-26 20:05:00,
2013-02-26 15:10:00,38.4,27.7,30.26,SW,229,6.0,6.0,65,0.02,,,0.16,VWS V14.01,2013-02-26 20:10:00,
2013-02-26 15:15:00,38.5,28.5,30.26,WSW,250,1.0,2.0,67,0.02,,,0.16,VWS V14.01,2013-02-26 20:15:00,
2013-02-26 15:20:00,38.5,28.5,30.27,SSE,164,0.0,6.0,67,0.02,,,0.16,VWS V14.01,2013-02-26 20:20:00,
2013-02-26 15:25:00,37.8,27.8,30.27,South,173,4.0,5.0,67,0.02,,,0.16,VWS V14.01,2013-02-26 20:25:00,
2013-02-26 15:30:00,37.2,28.3,30.26,SSW,196,3.0,7.0,70,0.02,,,0.16,VWS V14.01,2013-02-26 20:30:00,
2013-02-26 15:35:00,37.0,28.5,30.26,South,187,0.0,2.0,71,0.01,,,0.16,VWS V14.01,2013-02-26 20:35:00,
2013-02-26 15:40:00,36.9,28.7,30.26,NNW,341,0.0,3.0,72,0.01,,,0.16,VWS V14.01,2013-02-26 20:40:00,
2013-02-26 15:45:00,36.7,28.9,30.26,SSW,196,0.0,0.0,73,0.01,,,0.16,VWS V14.01,2013-02-26 20:45:00,
2013-02-26 15:50:00,36.6,29.4,30.26,SSW,196,0.0,0.0,75,0.01,,,0.16,VWS V14.01,2013-02-26 20:50:00,
2013-02-26 15:55:00,36.5,28.7,30.26,SW,229,0.0,3.0,73,0.01,,,0.16,VWS V14.01,2013-02-26 20:55:00,
2013-02-26 16:00:00,36.4,28.6,30.26,SE,129,0.0,5.0,73,0.01,,,0.16,VWS V14.01,2013-02-26 21:00:00,
2013-02-26 16:05:00,36.5,28.7,30.26,South,169,5.0,5.0,73,0.00,,,0.16,VWS V14.01,2013-02-26 21:05:00,
2013-02-26 16:10:00,36.4,28.6,30.26,South,191,0.0,8.0,73,0.00,,,0.16,VWS V14.01,2013-02-26 21:10:00,
2013-02-26 16:15:00,36.2,28.7,30.26,WSW,249,0.0,3.0,74,0.00,,,0.16,VWS V14.01,2013-02-26 21:15:00,
2013-02-26 16:20:00,36.1,28.6,30.26,SSW,207,0.0,5.0,74,0.00,,,0.16,VWS V14.01,2013-02-26 21:20:00,
2013-02-26 16:25:00,35.9,28.8,30.26,SSW,196,3.0,3.0,75,0.00,,,0.16,VWS V14.01,2013-02-26 21:25:00,
2013-02-26 16:30:00,35.7,28.9,30.26,SSW,211,0.0,4.0,76,0.00,,,0.16,VWS V14.01,2013-02-26 21:30:00,
2013-02-26 16:35:00,35.6,28.8,30.26,SW,227,1.0,2.0,76,0.00,,,0.16,VWS V14.01,2013-02-26 21:35:00,
2013-02-26 16:40:00,35.6,28.8,30.26,NW,305,0.0,4.0,76,0.00,,,0.16,VWS V14.01,2013-02-26 21:40:00,
2013-02-26 16:45:00,35.6,29.1,30.26,WSW,237,0.0,0.0,77,0.00,,,0.16,VWS V14.01,2013-02-26 21:45:00,
2013-02-26 16:50:00,35.5,29.0,30.26,West,281,1.0,4.0,77,0.00,,,0.16,VWS V14.01,2013-02-26 21:50:00,
2013-02-26 16:55:00,35.4,29.2,30.26,South,172,0.0,0.0,78,0.00,,,0.16,VWS V14.01,2013-02-26 21:55:00,
2013-02-26 17:00:00,35.4,29.2,30.25,South,172,0.0,1.0,78,0.00,,,0.16,VWS V14.01,2013-02-26 22:00:00,
2013-02-26 17:05:00,35.3,29.5,30.26,South,172,0.0,0.0,79,0.00,,,0.16,VWS V14.01,2013-02-26 22:05:00,
2013-02-26 17:10:00,35.1,29.3,30.25,West,270,0.0,1.0,79,0.00,,,0.16,VWS V14.01,2013-02-26 22:10:00,
2013-02-26 17:15:00,35.1,29.3,30.26,West,270,0.0,0.0,79,0.00,,,0.16,VWS V14.01,2013-02-26 22:15:00,
2013-02-26 17:20:00,35.1,29.6,30.26,SSW,198,1.0,5.0,80,0.00,,,0.16,VWS V14.01,2013-02-26 22:20:00,
2013-02-26 17:25:00,35.0,29.8,30.25,WSW,245,0.0,0.0,81,0.00,,,0.16,VWS V14.01,2013-02-26 22:25:00,
2013-02-26 17:30:00,34.9,29.7,30.25,North,5,0.0,1.0,81,0.00,,,0.16,VWS V14.01,2013-02-26 22:30:00,
2013-02-26 17:35:00,34.7,29.8,30.25,NNW,340,0.0,0.0,82,0.00,,,0.16,VWS V14.01,2013-02-26 22:35:00,
2013-02-26 17:40:00,34.6,30.0,30.25,NNW,342,0.0,0.0,83,0.00,,,0.16,VWS V14.01,2013-02-26 22:40:00,
2013-02-26 17:45:00,34.6,29.7,30.25,NNW,343,0.0,0.0,82,0.00,,,0.16,VWS V14.01,2013-02-26 22:45:00,
2013-02-26 17:50:00,34.6,29.7,30.26,SW,232,2.0,4.0,82,0.00,,,0.16,VWS V14.01,2013-02-26 22:50:00,
2013-02-26 17:55:00,34.6,29.7,30.26,SW,234,0.0,0.0,82,0.00,,,0.16,VWS V14.01,2013-02-26 22:55:00,
2013-02-26 18:00:00,34.6,29.7,30.26,SW,236,0.0,4.0,82,0.00,,,0.16,VWS V14.01,2013-02-26 23:00:00,
2013-02-26 18:05:00,34.6,29.7,30.26,WSW,240,0.0,0.0,82,0.00,,,0.16,VWS V14.01,2013-02-26 23:05:00,
2013-02-26 18:10:00,34.5,29.6,30.26,SW,223,0.0,2.0,82,0.00,,,0.16,VWS V14.01,2013-02-26 23:10:00,
2013-02-26 18:15:00,34.4,29.8,30.26,NNE,13,1.0,1.0,83,0.00,,,0.16,VWS V14.01,2013-02-26 23:15:00,
2013-02-26 18:20:00,34.4,29.5,30.25,WSW,238,0.0,4.0,82,0.00,,,0.16,VWS V14.01,2013-02-26 23:20:00,
2013-02-26 18:25:00,34.4,29.8,30.25,WSW,238,0.0,0.0,83,0.00,,,0.16,VWS V14.01,2013-02-26 23:25:00,
2013-02-26 18:30:00,34.3,29.7,30.25,East,85,1.0,2.0,83,0.00,,,0.16,VWS V14.01,2013-02-26 23:30:00,
2013-02-26 18:35:00,34.3,29.7,30.25,NNW,340,0.0,0.0,83,0.00,,,0.16,VWS V14.01,2013-02-26 23:35:00,
2013-02-26 18:40:00,34.2,29.6,30.25,WNW,286,0.0,5.0,83,0.00,,,0.16,VWS V14.01,2013-02-26 23:40:00,
2013-02-26 18:45:00,34.2,29.6,30.24,WSW,240,4.0,4.0,83,0.00,,,0.16,VWS V14.01,2013-02-26 23:45:00,
2013-02-26 18:50:00,34.2,29.3,30.24,WNW,284,1.0,5.0,82,0.00,,,0.16,VWS V14.01,2013-02-26 23:50:00,
2013-02-26 18:55:00,34.2,29.6,30.24,NW,314,3.0,4.0,83,0.00,,,0.16,VWS V14.01,2013-02-26 23:55:00,
2013-02-26 19:00:00,34.1,29.5,30.24,WSW,257,0.0,4.0,83,0.00,,,0.16,VWS V14.01,2013-02-27 00:00:00,
2013-02-26 19:05:00,34.0,29.4,30.24,SW,231,0.0,1.0,83,0.00,,,0.16,VWS V14.01,2013-02-27 00:05:00,
2013-02-26 19:10:00,34.0,29.4,30.24,SE,134,0.0,4.0,83,0.00,,,0.16,VWS V14.01,2013-02-27 00:10:00,
2013-02-26 19:15:00,34.0,29.4,30.24,NE,44,0.0,1.0,83,0.00,,,0.16,VWS V14.01,2013-02-27 00:15:00,
2013-02-26 19:20:00,33.8,29.5,30.24,NNW,327,0.0,3.0,84,0.00,,,0.16,VWS V14.01,2013-02-27 00:20:00,
2013-02-26 19:25:00,33.7,29.4,30.24,WSW,258,1.0,2.0,84,0.00,,,0.16,VWS V14.01,2013-02-27 00:25:00,
2013-02-26 19:30:00,33.8,29.5,30.24,SW,234,1.0,7.0,84,0.00,,,0.16,VWS V14.01,2013-02-27 00:30:00,
2013-02-26 19:35:00,33.9,29.6,30.24,West,275,1.0,1.0,84,0.00,,,0.16,VWS V14.01,2013-02-27 00:35:00,
2013-02-26 19:40:00,33.8,29.5,30.25,South,177,0.0,4.0,84,0.00,,,0.16,VWS V14.01,2013-02-27 00:40:00,
2013-02-26 19:45:00,33.8,29.5,30.25,WSW,239,3.0,3.0,84,0.00,,,0.16,VWS V14.01,2013-02-27 00:45:00,
2013-02-26 19:50:00,33.8,29.5,30.25,NW,307,0.0,6.0,84,0.00,,,0.16,VWS V14.01,2013-02-27 00:50:00,
2013-02-26 19:55:00,33.8,29.5,30.25,WNW,282,0.0,0.0,84,0.00,,,0.16,VWS V14.01,2013-02-27 00:55:00,
2013-02-26 19:59:00,33.8,29.5,30.25,WNW,301,1.0,4.0,84,0.00,,,0.16,VWS V14.01,2013-02-27 00:59:00,
2013-02-26 20:04:00,33.7,29.4,30.26,SSW,200,0.0,0.0,84,0.00,,,0.16,VWS V14.01,2013-02-27 01:04:00,
2013-02-26 20:09:00,33.7,29.4,30.26,SSW,202,0.0,1.0,84,0.00,,,0.16,VWS V14.01,2013-02-27 01:09:00,
2013-02-26 20:15:00,33.6,29.6,30.26,ESE,107,0.0,0.0,85,0.00,,,0.16,VWS V14.01,2013-02-27 01:15:00,
2013-02-26 20:20:00,33.5,29.5,30.26,ESE,107,0.0,1.0,85,0.00,,,0.16,VWS V14.01,2013-02-27 01:20:00,
2013-02-26 20:24:00,33.5,29.5,30.25,SSW,195,0.0,0.0,85,0.00,,,0.16,VWS V14.01,2013-02-27 01:24:00,
2013-02-26 20:29:00,33.6,29.6,30.25,WSW,252,0.0,2.0,85,0.00,,,0.16,VWS V14.01,2013-02-27 01:29:00,
2013-02-26 20:34:00,33.5,29.5,30.25,WSW,252,0.0,0.0,85,0.00,,,0.16,VWS V14.01,2013-02-27 01:34:00,
2013-02-26 20:40:00,33.5,29.2,30.25,ENE,67,0.0,3.0,84,0.00,,,0.16,VWS V14.01,2013-02-27 01:40:00,
2013-02-26 20:45:00,33.5,29.2,30.25,North,5,0.0,0.0,84,0.00,,,0.16,VWS V14.01,2013-02-27 01:45:00,
2013-02-26 20:50:00,33.5,29.2,30.25,North,360,0.0,3.0,84,0.00,,,0.16,VWS V14.01,2013-02-27 01:50:00,
2013-02-26 20:55:00,33.5,29.2,30.25,North,360,0.0,0.0,84,0.00,,,0.16,VWS V14.01,2013-02-27 01:55:00,
2013-02-26 21:00:00,33.4,29.4,30.24,NW,311,2.0,4.0,85,0.00,,,0.16,VWS V14.01,2013-02-27 02:00:00,
2013-02-26 21:04:00,33.4,29.4,30.24,NW,313,0.0,0.0,85,0.00,,,0.16,VWS V14.01,2013-02-27 02:04:00,
2013-02-26 21:10:00,33.3,29.3,30.23,NW,321,0.0,4.0,85,0.00,,,0.16,VWS V14.01,2013-02-27 02:10:00,
2013-02-26 21:15:00,33.3,29.3,30.23,WNW,288,0.0,0.0,85,0.00,,,0.16,VWS V14.01,2013-02-27 02:15:00,
2013-02-26 21:20:00,33.3,29.3,30.23,NW,306,0.0,15.0,85,0.00,,,0.16,VWS V14.01,2013-02-27 02:20:00,
2013-02-26 21:25:00,33.3,29.0,30.23,WNW,286,3.0,5.0,84,0.00,,,0.16,VWS V14.01,2013-02-27 02:25:00,
2013-02-26 21:30:00,33.3,29.0,30.23,WSW,242,0.0,5.0,84,0.00,,,0.16,VWS V14.01,2013-02-27 02:30:00,
2013-02-26 21:35:00,33.2,28.9,30.22,South,178,5.0,5.0,84,0.00,,,0.16,VWS V14.01,2013-02-27 02:35:00,
2013-02-26 21:40:00,33.1,29.1,30.22,SW,221,2.0,12.0,85,0.00,,,0.16,VWS V14.01,2013-02-27 02:40:00,
2013-02-26 21:45:00,33.0,28.7,30.22,SW,236,6.0,8.0,84,0.00,,,0.16,VWS V14.01,2013-02-27 02:45:00,
2013-02-26 21:50:00,33.0,28.7,30.22,WSW,245,1.0,11.0,84,0.00,,,0.16,VWS V14.01,2013-02-27 02:50:00,
2013-02-26 21:55:00,32.9,28.6,30.22,WSW,243,4.0,8.0,84,0.00,,,0.16,VWS V14.01,2013-02-27 02:55:00,
2013-02-26 22:00:00,32.9,28.3,30.22,WSW,240,7.0,18.0,83,0.00,,,0.16,VWS V14.01,2013-02-27 03:00:00,
2013-02-26 22:05:00,32.8,28.2,30.21,West,277,4.0,4.0,83,0.00,,,0.16,VWS V14.01,2013-02-27 03:05:00,
2013-02-26 22:10:00,32.8,28.2,30.21,SW,232,2.0,8.0,83,0.00,,,0.16,VWS V14.01,2013-02-27 03:10:00,
2013-02-26 22:15:00,32.7,28.1,30.22,WSW,240,2.0,6.0,83,0.00,,,0.16,VWS V14.01,2013-02-27 03:15:00,
2013-02-26 22:20:00,32.7,28.1,30.22,WNW,294,5.0,10.0,83,0.00,,,0.16,VWS V14.01,2013-02-27 03:20:00,
2013-02-26 22:25:00,32.6,27.7,30.21,SSW,213,5.0,5.0,82,0.00,,,0.16,VWS V14.01,2013-02-27 03:25:00,
2013-02-26 22:30:00,32.6,27.7,30.21,SE,145,0.0,12.0,82,0.00,,,0.16,VWS V14.01,2013-02-27 03:30:00,
2013-02-26 22:35:00,32.5,27.6,30.21,SW,236,6.0,6.0,82,0.00,,,0.16,VWS V14.01,2013-02-27 03:35:00,
2013-02-26 22:40:00,32.5,27.6,30.21,SW,229,0.0,6.0,82,0.00,,,0.16,VWS V14.01,2013-02-27 03:40:00,
2013-02-26 22:45:00,32.3,27.4,30.20,WNW,292,0.0,0.0,82,0.00,,,0.16,VWS V14.01,2013-02-27 03:45:00,
2013-02-26 22:50:00,32.3,27.1,30.20,WNW,292,2.0,8.0,81,0.00,,,0.16,VWS V14.01,2013-02-27 03:50:00,
2013-02-26 22:55:00,32.2,27.0,30.20,NW,313,4.0,7.0,81,0.00,,,0.16,VWS V14.01,2013-02-27 03:55:00,
2013-02-26 23:00:00,32.1,26.6,30.20,West,265,4.0,10.0,80,0.00,,,0.16,VWS V14.01,2013-02-27 04:00:00,
2013-02-26 23:05:00,32.0,26.8,30.19,West,275,8.0,8.0,81,0.00,,,0.16,VWS V14.01,2013-02-27 04:05:00,
2013-02-26 23:10:00,32.0,26.8,30.19,WSW,257,1.0,10.0,81,0.00,,,0.16,VWS V14.01,2013-02-27 04:10:00,
2013-02-26 23:15:00,32.0,26.8,30.18,WSW,244,0.0,0.0,81,0.00,,,0.16,VWS V14.01,2013-02-27 04:15:00,
2013-02-26 23:20:00,31.9,26.7,30.18,SE,135,2.0,2.0,81,0.00,,,0.16,VWS V14.01,2013-02-27 04:20:00,
2013-02-26 23:25:00,31.8,26.6,30.18,WSW,257,2.0,4.0,81,0.00,,,0.16,VWS V14.01,2013-02-27 04:25:00,
2013-02-26 23:30:00,31.7,26.5,30.17,North,5,0.0,4.0,81,0.00,,,0.16,VWS V14.01,2013-02-27 04:30:00,
2013-02-26 23:35:00,31.7,26.5,30.17,West,281,2.0,3.0,81,0.00,,,0.16,VWS V14.01,2013-02-27 04:35:00,
2013-02-26 23:40:00,31.6,26.5,30.17,NW,319,0.0,3.0,81,0.00,,,0.16,VWS V14.01,2013-02-27 04:40:00,
2013-02-26 23:45:00,31.6,26.8,30.17,NNW,327,0.0,0.0,82,0.00,,,0.16,VWS V14.01,2013-02-27 04:45:00,
2013-02-26 23:50:00,31.6,26.5,30.17,NW,319,0.0,3.0,81,0.00,,,0.16,VWS V14.01,2013-02-27 04:50:00,
2013-02-26 23:55:00,31.5,26.9,30.17,North,355,0.0,0.0,83,0.00,,,0.16,VWS V14.01,2013-02-27 04:55:00,